Terug naar catalogus

KUIPER-00428

ActiefCommunicatieVLEO
NORAD 69593·PAYLOAD·🇺🇸 United States

Gelanceerd Jun 17, 2026 vanaf Guiana Space Centre

Loading…

Volgende Passages (komende 24 uur)

TLE

VersSource: CelesTrak SupGP

Epoch: Sep 15, 2026, 04:32 UTC

1 69593C 26140B   26258.18899306  .00001341  00000+0  35410-4 0  2585
2 69593  51.8808 323.7812 0005376 252.2873 202.2378 15.37825857    16

Volg KUIPER-00428 in realtime met AllMySat

Download on the App Store